Theta_e
302 301 302 303 302 302 302 300 299 298 298 299 298 296 300 304 300 296 303 307 307 310 313 316 318 321 323 324 325 327 328 328 332 334 335 335 335 336 335 335 335 335 336 336 336 336 337 338 339 339 342 344 345 343 343 345 345 345 346 344 343 342 345 349 348 347 347 347 348 350 351 349 349 349 348 347 348 347 348 347 347 346 347 347 345 344 344
301 302 301 302 301 301 301 301 301 299 299 298 298 303 306 305 302 306 307 307 309 312 314 317 320 323 325 325 326 326 326 330 333 333 333 334 335 335 336 336 336 335 336 336 335 336 337 337 338 339 341 343 344 344 343 347 349 350 348 344 343 345 349 350 351 351 352 351 348 348 348 348 348 348 348 348 349 347 347 346 345 346 346 347 346 345 344
300 301 302 301 301 301 299 300 300 301 299 299 299 305 308 310 305 306 308 307 307 312 316 317 320 324 326 326 325 326 327 330 332 332 332 333 334 335 336 337 338 339 339 337 336 337 339 339 338 340 341 345 347 350 352 353 354 354 351 348 350 351 350 349 350 351 350 346 345 345 345 346 348 348 347 348 348 348 348 346 345 345 346 345 345 345 344
296 300 300 300 301 300 302 299 300 300 302 301 300 300 302 305 305 307 307 304 305 310 316 318 321 325 325 324 324 325 326 330 331 331 332 333 334 335 337 337 338 340 342 340 340 340 341 341 342 342 345 348 350 352 353 353 354 354 353 352 351 349 349 349 349 350 350 346 342 342 343 344 345 346 348 348 347 347 346 348 348 347 346 345 345 344 345
295 298 300 299 299 297 295 297 300 301 300 302 302 305 308 309 311 307 304 304 310 311 318 317 320 324 324 324 325 325 326 328 329 331 332 333 335 337 337 337 338 340 342 343 344 345 345 347 348 349 350 349 350 351 351 352 354 353 352 351 350 349 349 351 350 350 350 349 345 342 342 343 343 344 345 347 345 344 344 345 348 348 347 346 345 345 344
296 299 300 300 294 289 291 300 307 307 304 303 302 303 306 310 312 310 310 310 311 315 317 318 320 322 323 325 326 329 328 327 327 329 332 333 335 337 339 339 339 340 342 343 345 346 347 348 348 347 349 349 349 349 348 349 351 351 351 348 348 348 347 348 348 350 351 350 350 347 344 345 345 344 342 344 344 343 344 345 345 347 350 350 351 352 352
296 299 300 293 289 290 300 306 308 311 310 308 306 306 308 310 311 312 309 310 312 317 319 320 322 324 326 327 328 327 329 329 328 329 330 330 333 335 335 336 339 340 341 342 343 343 344 344 344 345 345 348 348 348 349 350 351 351 349 347 345 345 345 344 344 344 346 348 347 343 341 344 344 343 344 345 345 345 344 344 343 343 344 345 347 350 350
301 296 293 288 290 300 305 306 312 316 312 309 307 305 307 312 310 309 309 311 314 317 319 321 323 322 325 327 328 328 328 329 328 328 329 329 332 333 334 335 340 340 341 341 342 342 343 342 342 343 345 346 348 347 349 350 349 350 349 346 345 344 345 344 344 344 345 344 345 341 340 339 340 341 341 342 342 343 343 342 342 342 342 343 345 347 348
297 297 296 295 302 301 303 305 310 311 307 305 303 298 303 312 309 310 310 311 314 317 319 320 322 324 325 322 322 326 327 328 329 329 329 330 333 334 335 338 342 343 343 342 342 343 340 340 340 340 342 343 344 345 346 349 349 350 348 346 344 344 346 345 344 344 344 345 344 344 342 339 339 339 337 337 338 341 340 340 340 340 341 342 344 346 346
301 294 292 292 292 292 298 310 316 317 316 311 309 304 305 314 315 314 313 313 314 317 319 321 323 324 319 314 318 323 326 329 329 329 329 332 334 335 338 343 344 344 343 342 343 341 339 338 339 338 339 341 341 342 344 346 349 348 348 347 347 346 347 347 346 345 345 344 343 343 341 339 338 337 337 338 339 343 340 339 339 340 341 342 342 345 345
299 296 291 292 292 294 307 311 316 318 317 314 309 304 301 311 316 318 316 315 317 319 320 321 322 318 313 313 317 322 325 327 330 329 332 335 337 339 342 344 343 343 342 342 342 340 339 338 339 338 338 340 340 341 344 345 347 347 347 347 347 348 348 349 348 346 345 343 341 340 338 337 336 336 336 337 338 340 342 340 341 340 343 343 341 340 342
299 296 293 292 298 301 311 315 317 319 321 315 308 297 298 312 317 319 318 318 319 321 322 322 319 316 312 313 318 323 326 328 331 331 333 335 339 341 343 345 344 343 344 343 340 339 339 340 342 339 339 340 342 340 343 345 345 345 346 347 348 348 346 346 346 346 344 345 342 340 337 336 336 336 337 338 337 340 341 342 342 341 341 341 339 341 342
299 301 295 297 300 313 317 318 320 323 317 313 302 295 306 315 319 319 320 320 321 322 321 321 316 317 319 321 322 324 326 327 330 333 335 337 341 341 342 343 347 343 343 342 340 340 342 344 343 340 340 339 342 345 343 343 344 345 345 345 345 344 343 342 342 341 341 341 341 339 339 338 339 340 339 338 338 341 341 341 340 340 340 340 341 341 342
295 295 295 295 303 313 318 320 321 323 311 302 300 315 320 319 319 320 321 321 322 322 321 319 319 320 319 323 323 324 325 328 329 331 332 336 340 342 344 346 345 343 343 342 341 342 341 345 345 342 341 342 343 344 340 340 344 344 345 344 343 342 341 340 339 339 339 340 342 342 340 340 337 334 336 336 335 335 334 334 334 334 334 337 339 338 339
300 297 296 293 289 306 320 319 319 322 310 311 319 323 324 322 320 321 321 322 321 322 320 320 319 321 320 322 322 322 324 327 329 329 331 335 337 338 341 343 344 344 342 341 342 342 344 346 344 343 343 344 345 345 339 342 344 345 344 342 341 340 339 338 340 339 340 343 342 341 339 338 333 332 333 334 333 333 332 331 331 330 330 331 331 332 333
297 295 292 291 306 313 319 319 313 317 319 321 324 325 323 323 321 321 322 321 323 323 321 321 323 321 320 321 321 321 324 327 329 328 331 335 337 339 342 343 343 343 341 342 342 341 342 342 341 342 344 345 344 340 339 343 344 344 341 340 340 342 344 340 340 339 339 342 338 338 341 338 335 332 331 331 332 332 330 331 329 329 328 331 331 332 333
304 300 303 311 314 316 320 322 320 320 323 325 328 328 327 325 323 323 322 321 322 323 322 323 323 321 322 322 322 322 324 326 326 327 331 334 336 338 338 338 340 341 341 341 341 340 339 340 339 339 341 345 344 339 338 342 343 341 340 340 340 340 338 339 339 339 339 337 337 337 338 339 336 334 332 332 331 328 332 329 327 326 327 329 328 330 331
313 315 316 319 318 319 320 323 325 323 324 327 328 328 326 328 329 326 321 324 323 322 323 324 322 322 322 323 322 323 324 325 326 330 333 334 336 337 335 335 340 341 342 341 340 340 338 339 339 343 339 343 343 338 340 341 339 340 341 340 339 337 338 338 337 340 338 338 337 336 337 338 337 334 333 334 331 327 325 325 323 325 326 326 324 324 323
302 298 311 316 317 319 320 320 323 325 326 326 328 328 329 328 329 329 330 326 325 323 323 323 321 321 322 323 324 325 326 328 330 332 333 334 335 334 333 335 342 342 342 340 339 339 337 339 339 340 340 341 342 342 341 341 341 340 339 339 342 338 336 336 336 335 335 333 333 334 332 331 329 330 330 332 330 326 324 322 322 324 323 324 322 320 321
301 303 313 317 320 320 322 321 320 321 324 326 328 331 331 330 330 331 332 331 328 326 323 323 322 322 323 324 324 326 328 330 331 332 333 333 333 333 335 339 343 342 341 339 338 337 336 336 338 338 340 342 342 341 341 342 341 340 341 339 337 336 336 336 337 335 334 345 339 328 325 322 323 324 326 325 322 321 319 319 318 319 319 322 319 319 317
309 313 315 319 319 318 320 323 323 324 324 326 329 331 331 331 329 331 332 330 330 328 327 326 325 324 323 325 327 328 328 329 330 331 331 331 333 337 339 340 341 339 339 339 337 338 337 337 338 337 337 341 342 340 340 341 340 340 339 344 338 336 336 336 334 341 337 335 333 326 320 316 312 312 315 320 319 316 315 314 316 318 318 319 319 316 316
303 306 312 318 308 309 316 320 323 324 326 329 331 334 331 330 330 331 331 328 330 330 330 328 327 326 326 327 326 327 328 329 330 332 335 337 337 336 335 335 334 333 334 333 333 335 337 336 336 336 334 337 342 342 340 340 340 339 339 339 337 335 336 336 336 334 334 331 328 325 321 318 317 314 311 303 307 318 316 313 307 303 306 317 315 313 315
304 312 317 319 316 315 319 323 328 328 328 330 332 332 333 333 333 333 332 330 326 328 329 330 329 328 329 328 329 330 331 333 335 335 334 333 332 332 333 332 332 332 333 335 334 334 335 336 336 338 338 338 339 340 341 340 338 335 334 334 333 331 331 333 337 337 334 330 327 324 323 320 319 317 314 311 299 304 311 310 303 295 295 297 300 307 314
317 319 320 320 318 317 321 324 325 326 327 329 331 334 336 334 332 331 332 332 329 326 326 328 330 330 331 333 333 332 333 333 333 332 332 332 332 332 333 332 332 332 333 334 335 334 335 337 337 334 333 333 335 336 336 336 336 336 336 335 332 332 331 333 336 338 333 333 330 327 325 323 322 321 319 315 311 300 301 304 300 296 294 294 294 297 301
314 319 319 321 321 321 323 323 323 323 326 328 330 333 334 333 331 332 331 331 332 329 327 328 331 333 333 332 333 332 331 332 334 333 332 332 333 333 333 333 332 332 333 334 334 334 335 335 334 332 331 332 335 336 335 337 339 337 336 336 334 333 332 334 335 337 336 336 336 331 328 328 326 325 322 322 319 314 306 298 297 295 294 294 294 295 294
321 320 321 323 323 323 323 321 321 323 325 325 327 331 334 337 336 334 334 332 330 330 331 331 331 332 333 331 331 331 330 331 333 333 331 330 331 331 331 331 332 332 330 332 334 334 334 334 333 332 333 334 336 337 339 338 338 337 336 336 335 334 332 332 330 329 331 333 333 332 333 331 330 328 328 327 325 323 318 314 309 301 295 294 295 294 294
325 325 323 318 317 318 321 320 318 324 327 329 330 331 333 335 339 337 336 336 334 332 330 330 330 330 330 331 331 330 329 330 331 331 330 330 330 330 331 332 333 333 333 332 333 338 338 334 334 333 333 336 337 339 340 339 337 336 335 335 335 341 343 339 331 331 331 332 332 333 332 333 333 334 332 334 333 327 323 321 320 318 315 309 299 296 301
322 322 323 315 314 317 319 322 323 325 328 330 331 333 335 336 335 333 332 332 332 331 330 330 329 328 327 328 329 328 329 329 329 329 329 329 329 330 330 330 331 331 332 332 331 333 333 334 334 333 332 335 338 337 338 339 337 335 334 334 335 335 338 339 335 333 332 331 331 332 333 333 334 332 333 335 332 330 325 326 325 321 316 310 311 306 298
319 320 322 323 322 324 325 324 324 326 327 330 333 334 335 333 331 330 329 330 331 331 329 329 330 329 328 328 329 328 328 328 328 328 329 329 330 330 330 330 332 332 330 331 331 332 333 333 333 332 332 334 336 336 337 336 335 335 334 335 334 334 334 334 333 334 333 332 331 333 335 334 335 333 333 332 334 333 332 329 326 321 315 312 311 311 310
321 322 323 323 323 326 325 322 321 325 327 328 330 331 332 333 331 330 329 329 330 330 330 330 329 328 329 328 329 329 328 328 327 328 329 329 328 329 331 332 331 330 329 330 330 331 333 333 331 330 331 333 337 335 335 333 334 333 333 334 334 334 333 333 333 333 330 329 331 336 336 334 331 330 332 331 332 334 332 330 328 323 318 315 319 315 313
322 323 324 323 324 325 323 321 323 326 326 327 328 329 330 331 331 331 329 329 329 330 330 329 328 327 327 328 328 329 330 330 330 329 329 328 329 329 330 330 328 327 328 329 330 332 332 332 331 330 331 333 335 334 333 332 332 333 333 332 333 333 332 333 335 331 330 331 332 331 331 331 330 331 331 329 332 331 330 329 328 324 322 318 318 319 314
322 322 321 320 321 321 322 322 324 324 325 326 327 327 328 328 328 328 327 326 328 331 330 328 326 326 327 328 329 328 328 329 329 328 328 328 328 329 330 331 332 333 331 332 332 332 332 331 330 331 332 334 335 334 334 332 333 331 330 335 331 330 332 334 333 333 334 334 331 331 334 330 328 329 330 331 330 328 328 327 325 324 323 322 321 321 316
320 318 317 318 321 321 321 322 323 323 324 324 324 326 327 329 329 330 330 328 327 328 328 328 328 328 329 328 328 327 327 328 329 329 328 328 329 329 330 329 330 331 331 332 332 332 331 331 331 332 332 334 334 334 334 331 330 330 331 332 331 331 335 331 331 330 332 333 331 331 331 332 330 330 329 330 330 331 327 328 328 328 326 325 323 322 317
320 320 318 320 320 319 321 321 322 322 322 323 324 326 328 329 329 330 330 329 328 328 327 328 328 329 328 327 327 327 327 327 325 325 325 325 326 327 329 330 330 330 330 330 331 331 331 332 332 332 334 336 335 334 333 332 330 329 329 330 331 329 329 327 329 331 330 332 330 333 333 333 332 331 332 332 330 329 329 330 330 329 328 327 326 323 314
325 325 324 322 324 325 328 325 325 325 325 325 326 328 329 330 331 332 331 329 328 328 328 329 328 328 327 326 326 326 326 325 325 325 325 325 326 327 328 329 329 328 328 329 329 330 332 333 333 333 335 335 334 332 333 333 330 327 329 330 331 329 329 331 329 329 330 330 331 327 327 329 329 335 335 331 328 328 330 330 330 330 328 327 325 322 318
325 324 324 324 325 327 328 328 328 327 326 326 326 328 329 330 330 330 329 328 328 328 328 327 327 327 326 325 324 325 325 326 327 327 327 327 327 327 328 328 328 328 328 328 330 331 332 333 339 340 334 334 333 333 334 333 331 328 331 329 329 331 331 331 331 331 331 329 328 327 327 330 332 330 330 329 328 328 327 327 328 329 328 327 324 322 319
326 325 326 324 324 323 323 324 324 324 326 327 328 328 328 329 329 330 330 329 328 328 328 328 327 326 325 325 326 326 327 328 328 328 327 327 326 326 326 327 328 327 327 326 329 333 333 334 337 337 334 332 332 332 336 341 328 326 326 325 327 328 327 326 327 325 327 327 326 325 328 328 325 325 330 328 328 327 326 327 327 327 326 326 325 323 319
324 323 322 322 323 323 323 324 328 328 327 327 327 329 329 328 328 329 329 330 329 329 328 328 328 328 328 328 328 328 329 329 328 327 326 326 325 325 325 325 325 325 323 324 328 329 329 331 333 329 327 328 330 332 335 340 340 329 327 327 329 327 327 325 324 323 324 323 327 325 325 323 323 323 323 323 324 324 325 326 327 327 327 327 325 323 321
321 322 322 322 324 324 324 326 327 327 328 327 328 328 329 328 328 328 328 328 329 330 329 328 328 328 327 327 327 328 328 329 328 326 325 324 325 324 323 324 325 324 324 324 323 323 326 328 327 323 325 326 328 331 335 338 337 327 328 327 327 328 326 327 325 325 326 326 326 326 325 324 322 323 321 321 321 323 324 327 324 324 325 326 325 323 322
320 320 320 322 323 323 323 323 324 324 325 326 326 326 327 327 327 327 327 327 327 329 328 327 326 326 326 326 326 326 327 327 327 326 324 323 322 321 321 321 322 323 324 325 321 322 326 328 324 322 324 326 327 329 332 335 335 329 327 326 326 327 326 327 327 327 327 327 326 328 324 323 323 325 323 323 322 322 322 322 322 323 323 322 322 322 321
321 321 322 322 322 322 322 322 322 324 325 326 326 326 326 326 326 325 325 325 326 327 327 327 326 325 325 325 324 324 323 323 323 323 323 323 322 320 319 318 321 322 321 321 320 321 322 323 322 322 324 326 326 333 327 334 327 325 325 327 326 327 327 327 328 328 328 328 328 326 325 326 325 325 324 323 322 322 322 322 323 322 322 323 322 322 322
321 323 323 322 322 322 322 323 323 323 324 325 326 327 328 328 327 326 326 326 326 326 326 327 328 324 324 323 322 321 320 319 318 318 319 319 319 319 318 318 321 320 323 321 319 319 317 317 319 327 327 327 327 331 331 327 325 325 326 327 328 329 328 327 326 325 326 326 326 326 326 325 325 325 324 323 323 323 323 323 323 324 324 323 322 323 324
321 321 321 321 321 322 322 323 323 324 324 325 326 327 327 326 326 325 325 325 324 324 324 324 326 325 323 322 320 319 318 319 318 318 317 317 319 320 319 318 318 319 322 319 317 315 316 317 320 323 327 327 325 326 326 321 321 321 320 321 322 323 323 324 323 322 323 324 325 325 324 324 325 325 324 324 323 323 324 325 325 325 324 324 325 325 325
322 321 322 322 322 322 322 322 323 323 323 323 325 326 324 324 324 323 323 323 323 323 322 321 320 320 320 320 320 319 319 318 316 315 314 314 315 318 320 319 318 320 322 317 315 315 316 317 320 322 324 323 326 325 319 318 319 318 318 317 318 318 319 319 320 319 319 320 321 322 321 320 321 321 321 322 322 323 322 322 323 325 325 324 325 326 325
322 322 322 321 321 322 322 322 322 322 323 324 325 324 323 322 321 321 321 320 320 320 321 319 318 318 318 318 318 318 318 318 316 314 312 312 312 314 319 320 318 318 319 319 315 315 316 317 320 322 322 321 321 322 316 316 316 316 317 317 317 317 317 317 318 319 319 318 318 319 319 319 318 318 319 319 320 318 319 319 320 322 322 321 321 321 321
323 324 324 326 321 322 323 324 324 325 325 324 323 323 322 321 320 319 319 318 317 316 316 317 317 317 316 315 315 314 315 315 315 315 314 313 312 315 319 319 318 318 319 318 314 314 316 321 320 319 320 320 320 316 315 315 315 315 315 315 315 315 316 316 316 316 316 316 317 317 317 317 316 316 317 317 317 317 317 318 318 319 320 319 319 319 319
322 322 322 322 323 323 323 324 325 324 323 321 319 319 320 320 319 318 317 317 316 316 315 314 314 314 314 315 314 311 310 310 312 314 314 314 316 317 318 319 318 318 318 315 315 316 317 317 318 318 318 319 319 314 314 313 314 314 314 314 314 314 314 315 315 314 314 314 315 315 316 315 315 315 315 316 315 315 315 315 315 315 316 317 317 316 314
324 323 323 323 323 323 323 322 322 320 320 319 320 320 319 318 318 317 317 316 316 315 314 314 314 314 314 314 314 314 311 309 307 307 310 311 312 313 314 315 315 317 317 318 318 319 319 319 318 318 318 318 314 311 312 312 312 311 311 311 311 311 312 313 313 313 312 312 312 312 311 311 311 312 312 313 313 313 313 313 313 313 314 314 312 310 309
323 323 323 323 323 322 321 321 320 320 320 321 321 320 319 318 317 316 315 315 314 313 313 313 313 313 315 316 314 312 314 313 310 308 310 311 310 310 313 316 317 316 314 312 311 311 318 317 317 316 317 317 310 310 310 310 311 310 310 309 309 309 309 310 310 311 310 310 310 310 310 310 310 310 310 310 310 310 311 310 310 311 311 311 310 309 308
323 323 322 321 321 320 319 318 317 318 320 319 318 318 319 317 313 312 313 312 312 313 310 310 310 311 311 311 311 312 312 313 313 313 312 312 311 310 312 312 313 316 316 311 311 311 317 317 318 317 314 309 309 309 308 309 309 310 309 309 309 308 309 308 310 309 308 309 308 308 308 308 308 309 309 309 310 309 309 309 309 310 311 310 309 308 307
321 321 321 321 321 320 319 318 316 317 316 315 315 316 316 314 313 313 311 311 310 311 309 309 310 310 310 310 311 311 312 312 313 316 311 311 312 316 316 315 312 313 312 312 310 308 308 309 310 312 311 311 308 309 309 309 308 309 310 308 309 309 308 308 307 306 306 306 305 306 306 306 306 306 307 307 308 309 309 308 308 308 308 308 307 307 307
322 321 320 321 320 318 316 315 315 315 314 314 314 314 314 314 313 312 313 317 310 309 308 308 308 308 309 310 310 309 310 311 312 311 315 313 311 310 314 316 309 310 308 307 307 307 307 309 314 317 316 307 307 307 313 313 308 307 308 309 309 308 308 307 306 304 303 303 302 302 303 303 303 303 304 305 306 306 307 308 307 307 307 306 306 306 306
Wind_Speed
1 2 5 5 3 4 3 4 4 5 7 5 5 5 6 12 10 10 8 12 14 12 13 14 14 13 13 12 11 11 10 8 7 8 9 8 8 6 8 10 9 8 7 6 5 5 6 5 5 5 5 5 4 4 5 7 8 9 7 7 8 11 13 10 8 8 8 7 7 7 7 7 7 7 7 7 7 7 7 7 7 8 7 7 6 6 5
2 2 3 6 5 2 3 4 5 5 4 5 6 4 9 11 8 13 16 11 13 13 12 13 15 12 12 9 6 5 8 10 10 10 10 10 9 9 9 8 9 9 9 7 7 7 6 7 6 6 5 6 7 7 7 8 7 7 8 10 14 14 10 7 6 6 6 6 7 7 7 8 8 7 6 6 5 4 5 6 7 6 6 6 6 7 6
2 3 6 5 1 3 4 5 4 3 3 4 2 8 11 4 5 5 16 11 9 5 10 10 7 7 8 8 9 11 10 10 11 11 11 10 10 9 8 7 7 8 9 8 7 8 9 9 9 8 8 7 7 8 8 7 8 9 11 13 10 8 7 5 5 5 6 6 6 7 6 4 4 6 6 6 6 5 5 5 6 5 5 6 6 6 6
2 2 4 5 5 4 1 4 7 5 1 2 1 2 5 5 8 11 12 7 8 4 7 8 10 11 14 15 10 8 8 9 10 11 10 10 10 9 9 8 8 8 9 9 9 9 9 9 8 7 7 6 6 7 5 6 6 6 5 5 5 4 3 3 4 5 6 6 5 5 4 5 6 5 6 6 5 4 4 5 5 5 6 7 7 6 5
1 4 1 4 4 6 6 5 6 6 5 4 2 1 9 11 16 14 13 13 11 11 12 13 10 12 13 12 11 8 6 7 9 11 11 10 9 9 9 9 9 10 10 11 11 9 8 7 7 7 8 7 7 6 6 3 3 5 5 5 4 4 3 4 4 5 5 7 7 6 6 6 5 6 5 5 5 4 6 6 3 4 6 6 7 6 6
2 5 4 4 6 3 3 3 2 4 5 7 9 6 6 9 18 12 16 14 9 15 15 17 14 12 12 15 13 15 15 11 8 8 9 9 9 8 9 9 10 9 8 7 9 9 8 6 5 5 5 7 5 4 5 1 3 3 4 3 3 3 3 3 3 3 4 5 7 6 4 3 4 3 2 5 6 4 4 3 2 2 3 4 4 4 5
3 5 5 4 0 3 6 3 3 7 5 8 8 8 7 10 4 12 6 10 16 20 20 19 18 18 15 12 13 6 8 12 12 12 9 8 8 10 9 8 8 8 8 7 6 6 6 7 6 5 3 3 4 4 5 5 5 5 4 4 4 3 3 3 3 3 3 3 4 5 3 1 4 5 5 7 7 6 5 4 2 3 4 4 4 4 4
0 2 2 1 2 5 6 3 10 15 11 12 11 12 4 4 10 13 13 16 18 19 16 15 14 11 10 8 7 11 10 11 11 9 9 9 10 10 10 11 9 9 9 10 10 8 5 7 6 6 6 5 6 6 5 6 5 5 5 5 5 4 4 4 4 4 4 4 4 7 7 6 6 6 5 6 6 6 6 6 6 5 6 6 8 6 4
1 1 1 3 4 4 10 7 9 8 4 8 5 3 3 9 5 4 8 9 11 12 12 10 8 7 9 7 5 4 8 8 7 12 11 12 12 10 9 9 10 9 9 8 7 7 6 7 7 7 6 6 6 5 5 5 5 5 5 6 6 6 5 5 5 5 5 5 4 6 9 11 11 10 8 8 8 6 6 6 6 6 7 7 7 5 3
2 2 4 5 6 0 4 4 10 10 7 7 6 3 4 7 12 2 15 13 12 11 10 11 11 10 11 4 8 8 6 7 7 5 6 6 6 7 7 5 6 6 5 6 7 9 9 8 8 6 7 6 7 6 6 5 5 5 5 6 6 6 6 6 6 6 6 6 5 4 4 3 3 3 4 5 7 9 9 9 9 9 8 6 3 2 3
2 2 1 1 1 1 2 13 13 15 12 11 3 8 6 6 8 11 8 16 16 17 16 12 12 11 9 9 10 9 8 7 8 8 6 7 8 9 11 11 10 8 8 9 9 7 8 8 7 7 7 7 7 6 5 4 5 5 6 6 5 6 6 6 6 6 5 5 4 4 3 3 2 2 3 3 2 2 3 3 3 2 1 2 2 2 3
2 1 2 1 2 2 9 12 13 15 15 6 7 4 5 6 11 6 1 14 11 11 14 14 13 13 11 11 11 8 11 10 9 10 10 9 8 8 8 8 10 9 8 8 7 7 7 7 7 6 5 5 5 5 5 4 5 5 5 6 5 4 3 3 3 3 3 3 3 3 3 2 2 3 2 1 2 2 2 2 2 2 2 1 3 3 3
4 4 2 1 2 2 9 12 15 15 5 7 11 0 5 9 13 4 1 13 17 16 14 13 11 10 13 15 10 8 8 7 7 7 9 11 12 11 10 9 8 8 8 9 10 9 7 5 6 5 5 4 4 3 3 4 5 5 4 3 4 4 4 4 3 3 3 3 3 3 3 3 3 2 3 3 3 3 3 3 3 2 2 2 3 4 4
5 4 3 3 2 2 6 14 10 11 6 5 4 9 11 9 11 3 4 5 13 17 17 11 11 14 4 2 7 10 8 10 9 10 9 9 6 6 7 10 9 8 7 6 7 5 4 5 5 4 4 4 3 4 4 4 4 4 5 5 6 6 6 5 4 3 3 3 3 4 3 4 4 3 2 2 3 3 2 2 1 1 1 2 3 4 4
0 1 2 1 3 4 12 16 5 13 6 2 6 9 14 6 5 4 4 10 7 10 12 10 6 4 5 9 9 9 9 10 11 11 11 11 11 10 8 7 7 9 7 7 7 6 5 5 5 4 5 5 4 4 5 4 5 6 6 6 6 6 5 4 4 4 3 3 3 3 2 2 2 1 0 1 2 2 2 1 1 1 3 3 3 3 4
2 1 3 1 1 5 10 8 8 2 2 5 7 4 12 13 6 2 2 5 11 9 10 7 3 5 8 7 10 9 10 11 10 9 9 9 8 8 9 11 9 8 7 6 6 5 5 5 6 5 6 5 4 5 5 5 5 5 5 5 5 5 4 4 4 3 3 3 3 3 3 3 2 1 0 0 0 1 3 3 2 1 2 2 3 3 4
1 2 2 2 3 3 3 2 1 3 5 2 9 11 9 12 12 3 2 6 5 3 6 7 8 7 10 13 14 15 14 13 12 12 12 13 13 12 11 10 8 7 8 8 7 5 4 4 4 4 5 5 4 4 4 4 5 5 4 4 4 3 3 2 2 2 2 1 1 2 2 2 2 1 0 0 0 1 3 4 3 3 1 1 2 2 2
2 1 2 2 2 2 2 2 4 4 6 12 11 12 12 11 13 13 6 1 1 1 2 7 5 9 7 9 8 9 11 12 10 9 9 8 9 9 8 7 7 7 7 7 7 6 3 3 3 3 3 4 4 3 3 3 4 4 4 4 3 3 1 0 1 2 2 2 2 1 3 1 1 1 1 2 3 2 4 4 3 2 1 2 2 2 2
2 1 4 4 3 3 5 4 1 3 9 11 10 12 11 12 17 17 3 5 4 3 1 3 8 5 6 8 8 10 11 11 11 12 12 11 12 11 10 9 9 8 7 6 5 4 4 0 1 2 3 3 4 5 4 4 4 4 3 3 1 1 1 1 1 1 2 2 2 4 3 5 5 5 4 5 4 3 4 4 2 2 1 1 2 2 2
3 2 3 6 5 4 3 4 7 7 8 12 11 8 10 15 19 18 13 1 6 3 6 3 8 6 5 11 8 9 10 11 10 10 11 11 8 6 7 8 9 7 6 4 4 3 3 2 3 4 5 4 4 4 4 4 4 3 3 1 1 0 1 1 3 3 0 2 2 5 5 5 5 5 5 4 5 4 3 2 2 1 0 1 2 1 0
2 3 3 4 4 4 5 4 3 6 2 11 11 11 14 16 18 23 13 4 4 6 7 6 9 8 5 9 11 9 6 6 7 7 7 6 6 8 9 9 10 10 8 7 6 6 5 4 3 3 4 3 3 4 4 4 5 4 2 1 2 2 3 4 4 3 5 5 3 4 5 5 5 4 3 3 4 3 1 1 2 3 4 3 3 2 1
1 1 1 5 3 1 5 5 5 6 7 9 7 4 11 8 15 19 15 7 4 3 5 8 8 11 6 3 4 7 5 5 6 8 11 14 16 16 15 15 16 15 12 11 10 9 6 3 3 2 3 0 2 2 3 4 5 5 3 4 4 6 9 9 6 4 4 4 4 4 4 5 4 4 7 5 4 2 2 2 1 2 3 3 4 4 3
1 1 2 4 1 4 7 5 5 4 5 3 8 8 8 2 9 12 11 9 6 3 3 2 8 7 7 5 7 10 12 13 13 15 16 15 13 12 13 14 12 11 9 9 10 6 2 1 3 6 9 10 9 10 9 9 10 11 10 6 7 7 7 7 8 3 2 2 2 4 5 5 5 5 4 4 8 6 4 5 3 2 1 2 4 7 5
6 8 5 4 2 2 7 9 7 4 3 4 5 8 7 9 10 12 11 8 5 3 3 3 2 6 7 8 12 15 15 14 15 15 14 14 13 12 12 12 11 9 7 8 9 7 3 5 7 7 7 6 6 6 6 6 8 9 9 8 7 7 6 6 2 4 3 4 6 6 6 6 6 6 5 4 2 2 1 6 3 3 3 2 1 2 4
2 6 11 10 6 8 7 7 7 3 3 3 4 11 9 8 11 11 12 11 11 7 6 6 8 9 13 15 15 15 14 13 13 14 13 12 12 12 11 11 11 10 9 5 6 6 5 5 4 4 6 5 5 5 5 5 5 6 7 7 8 6 5 3 3 5 4 3 4 5 6 6 6 6 6 6 6 3 1 1 3 3 3 3 3 3 3
2 5 10 13 7 6 5 2 5 9 7 4 4 7 9 9 8 11 12 12 11 12 13 12 14 13 14 14 13 15 16 13 11 11 10 9 8 8 9 9 7 4 1 3 7 8 6 6 5 3 3 3 4 5 6 5 5 6 6 5 5 5 5 6 4 3 4 4 3 3 4 4 4 4 4 4 4 4 6 4 2 2 1 2 5 5 2
1 2 2 10 8 6 4 5 3 9 5 5 6 6 6 8 11 10 10 12 13 13 13 13 14 13 13 13 15 14 14 11 12 11 9 9 8 7 7 8 6 3 3 6 7 5 6 4 4 3 3 2 2 4 6 7 7 6 6 5 5 7 13 10 8 8 7 5 3 3 4 5 3 3 3 3 3 4 4 5 5 4 3 2 2 4 3
2 2 1 3 7 2 4 7 10 9 3 5 4 6 6 9 12 14 14 14 14 14 14 12 13 14 13 9 11 12 12 14 12 9 10 8 6 6 8 5 3 2 4 6 5 3 3 4 3 2 1 1 1 1 2 5 6 6 6 6 6 5 6 9 8 8 8 7 5 6 6 6 5 4 3 2 3 4 3 2 3 4 2 2 1 1 2
3 3 2 5 8 7 6 8 12 3 6 4 5 5 8 12 11 11 11 10 9 11 12 11 10 11 10 8 10 11 10 10 10 10 9 7 3 0 1 5 6 4 5 5 4 4 4 4 3 2 1 2 2 1 0 1 3 4 4 5 5 5 5 6 6 6 5 5 5 6 6 5 3 3 3 3 3 3 4 4 4 3 4 3 2 1 2
3 5 4 3 5 5 3 8 8 3 6 5 8 9 7 10 10 9 9 9 9 11 7 7 9 8 6 6 6 7 10 10 10 7 5 4 3 2 4 3 5 7 7 4 2 1 4 4 3 2 1 2 3 2 1 1 1 2 3 4 4 5 5 5 5 3 1 2 5 6 5 3 3 3 3 2 2 2 4 5 5 5 4 4 4 4 4
4 4 3 5 8 5 6 10 5 6 6 7 7 8 8 9 10 10 9 7 8 9 8 10 11 11 8 6 1 4 7 8 7 6 4 3 5 5 4 3 5 6 6 3 2 3 5 4 3 3 4 2 1 2 2 2 2 1 0 1 2 5 7 8 6 3 2 3 5 4 4 3 3 3 3 2 1 2 4 4 5 5 5 5 5 4 4
7 4 5 2 3 9 3 2 7 6 6 6 8 9 6 7 9 9 8 7 7 9 10 8 8 10 9 7 2 3 6 6 7 7 6 6 7 6 7 9 8 7 6 5 6 7 6 5 5 3 3 3 2 1 0 1 0 1 3 4 3 3 5 8 4 3 3 4 2 2 3 4 5 4 3 3 3 3 3 4 4 4 4 5 5 5 5
3 4 1 3 3 2 5 4 6 5 5 7 6 4 5 5 5 7 8 7 6 5 6 7 5 5 5 4 2 3 5 7 8 9 9 8 7 7 7 7 7 7 8 7 7 5 5 5 3 2 2 3 3 3 3 1 1 2 3 3 4 3 4 2 2 1 1 2 3 4 4 4 4 4 5 4 4 3 3 4 4 4 5 6 6 4 6
3 5 1 4 4 5 2 3 3 5 4 4 5 5 6 6 6 6 6 6 7 6 4 4 3 2 2 5 6 4 4 7 9 8 8 7 7 7 8 9 9 9 7 6 6 6 5 5 4 4 4 3 4 3 3 1 0 1 3 3 3 2 1 1 1 1 0 1 2 3 4 4 6 6 5 5 4 3 3 3 4 5 5 6 6 5 7
1 4 7 8 3 6 7 2 5 5 6 7 6 7 6 7 8 8 8 6 3 2 3 5 3 2 3 5 8 9 10 10 8 8 7 7 6 6 6 7 7 7 8 7 7 6 5 4 3 3 4 3 3 3 3 2 0 1 1 1 1 1 1 2 3 3 2 3 3 2 4 5 6 5 5 5 4 3 3 3 4 5 5 6 6 4 5
2 3 3 5 5 4 2 3 4 6 6 6 7 7 7 7 8 8 8 5 3 2 4 6 6 7 8 9 9 10 10 8 8 8 8 8 7 7 7 6 7 7 7 8 7 6 5 4 9 10 5 4 4 4 3 0 1 2 1 0 0 1 1 2 2 2 2 3 3 3 4 5 5 4 4 4 4 4 5 4 4 4 5 5 5 5 5
3 3 3 5 7 14 16 12 9 9 7 6 7 8 8 7 6 5 6 7 5 3 3 4 6 7 8 7 7 8 8 8 8 8 7 6 6 7 7 7 7 7 7 9 8 7 7 7 11 12 7 5 5 5 4 4 2 2 2 2 1 1 1 1 1 2 1 1 2 3 4 4 5 4 3 4 5 5 4 4 4 4 4 4 4 5 4
9 10 8 9 9 10 8 4 3 7 9 9 7 6 5 6 6 7 8 8 7 5 4 5 6 6 6 7 8 9 9 9 9 8 7 6 6 9 9 8 8 7 8 8 6 6 6 8 11 6 5 5 5 5 6 8 6 3 3 3 4 3 3 3 3 2 2 2 2 2 3 4 4 4 5 3 2 2 3 4 5 5 5 5 5 5 6
12 9 8 4 2 6 5 1 3 8 9 8 6 7 7 7 8 9 9 7 5 5 6 7 7 8 8 10 9 9 9 8 8 9 9 9 9 11 10 9 8 7 6 4 6 6 7 8 5 6 6 6 6 5 5 7 6 3 3 3 4 4 3 3 4 3 4 3 3 3 4 4 4 4 5 5 4 4 3 5 5 3 3 5 5 6 6
9 7 7 2 1 4 6 7 6 8 7 7 9 7 5 7 7 8 8 8 6 5 7 8 9 9 9 9 9 9 9 8 8 8 8 7 9 9 9 9 9 7 9 11 8 7 11 16 10 7 6 6 5 4 4 6 6 4 4 4 4 4 4 4 4 4 4 3 4 4 3 3 3 4 4 5 5 5 5 5 5 5 5 3 2 2 2
5 6 3 2 5 5 6 7 7 7 7 8 7 6 5 6 8 9 8 7 6 7 8 8 10 10 10 10 10 10 10 10 9 7 5 5 7 7 9 8 5 6 8 7 7 8 10 9 7 6 6 5 5 5 5 7 5 4 5 5 5 5 5 5 5 5 4 4 3 3 3 4 4 4 4 4 4 5 5 5 5 5 4 4 5 2 0
4 5 5 6 5 3 5 5 6 8 7 5 5 4 6 7 8 8 6 7 8 8 9 10 12 10 9 9 9 9 9 9 9 9 9 9 7 7 8 6 4 6 11 11 9 8 7 7 7 6 6 6 6 13 12 7 6 6 6 6 6 6 6 6 6 6 5 4 4 4 5 4 4 4 4 4 4 5 4 4 5 5 5 5 4 4 5
5 6 5 5 5 5 7 7 6 7 7 6 6 6 8 8 8 8 8 8 9 8 9 8 10 10 9 8 9 9 8 7 8 9 9 9 8 7 6 4 4 7 13 8 7 6 7 6 6 7 12 10 9 14 13 7 6 7 7 8 8 8 8 8 7 7 7 6 6 6 6 6 6 6 6 5 5 5 6 6 6 5 5 5 5 5 5
5 5 4 5 6 6 6 6 3 4 7 6 5 7 9 8 8 9 9 9 8 8 8 9 9 9 9 8 8 7 6 6 6 6 6 7 7 7 6 5 5 10 15 7 7 6 6 6 6 12 16 16 17 16 9 7 8 8 7 7 7 7 8 8 8 8 8 7 8 8 7 8 8 7 8 8 8 8 8 8 8 8 7 6 6 6 7
5 4 5 7 6 5 6 7 7 7 5 4 6 8 9 9 9 9 9 9 9 8 8 8 8 8 8 8 8 7 7 6 5 5 7 6 6 5 4 6 7 7 9 10 6 6 6 7 10 15 13 14 15 15 8 7 7 7 7 7 7 7 7 7 7 7 7 7 7 6 7 7 7 7 7 8 8 8 8 8 8 8 8 8 8 8 8
5 5 5 6 5 4 5 6 5 5 6 8 10 9 8 8 9 8 8 9 9 8 7 7 7 6 7 7 7 7 8 7 6 6 6 5 5 3 3 6 5 7 12 10 4 5 5 12 13 12 13 14 14 10 7 7 7 7 7 7 7 7 6 6 6 7 7 7 7 7 7 7 7 7 7 7 7 7 8 8 8 8 8 8 8 8 8
4 5 6 7 7 6 6 5 5 7 8 9 9 8 7 8 8 8 8 8 8 8 8 8 8 7 6 5 6 7 8 7 6 5 5 5 5 6 7 9 10 10 8 5 4 4 5 7 9 13 14 15 13 7 6 6 6 6 7 7 6 6 5 5 6 6 6 6 7 7 8 8 7 7 7 7 8 8 8 8 8 7 7 8 8 9 9
3 5 5 6 7 5 6 8 6 6 7 7 7 8 8 8 8 8 7 8 8 7 7 6 6 6 7 8 7 6 6 7 8 4 3 4 5 3 4 4 6 9 9 8 8 8 11 10 10 10 11 10 6 6 6 7 7 7 7 7 7 7 6 6 6 7 7 8 8 8 8 8 8 8 8 8 8 8 8 8 8 7 8 8 9 8 9
4 6 5 5 7 7 6 6 4 5 6 5 6 8 8 9 8 8 7 7 7 6 6 5 6 6 6 6 6 6 4 4 6 5 2 3 4 4 4 6 9 8 5 4 4 4 8 10 10 12 12 9 7 6 7 7 7 7 7 7 7 8 8 8 8 7 8 9 9 9 9 9 8 8 8 8 8 7 8 8 8 8 7 7 7 8 8
5 6 6 6 6 6 6 6 6 5 5 5 7 7 7 8 7 6 5 5 6 6 5 5 6 6 6 6 5 4 5 4 4 4 3 3 3 3 3 3 3 5 5 4 4 5 8 11 10 10 8 6 6 6 6 6 6 6 6 7 7 7 8 9 10 11 9 9 9 9 9 9 9 10 9 8 7 7 7 7 7 9 12 9 8 8 8
6 6 6 6 6 6 6 6 6 6 6 6 6 7 8 8 7 5 5 6 5 5 5 5 5 6 6 5 5 4 3 3 3 4 2 2 2 3 3 3 3 3 3 4 5 6 6 6 6 6 6 6 6 6 6 6 6 6 6 6 7 7 8 9 8 8 9 8 8 9 9 9 9 9 9 9 8 7 7 7 7 6 7 7 7 7 8
5 5 5 6 7 7 7 7 7 7 6 6 6 7 8 7 7 6 5 6 6 6 6 6 6 4 4 5 4 4 2 2 2 2 2 2 3 3 3 4 3 3 4 4 4 5 5 5 4 5 5 4 5 4 5 6 6 6 7 7 7 8 8 7 7 8 8 9 8 8 9 8 8 9 9 9 8 8 7 6 7 7 7 6 6 6 6
Wind_Direction
236 200 230 237 183 214 221 237 238 252 228 194 191 203 189 157 157 185 202 179 163 180 179 179 172 168 169 173 173 168 155 137 136 140 144 155 161 158 155 156 159 158 169 174 173 165 180 180 184 180 169 173 193 189 185 185 183 184 172 175 202 223 219 195 187 182 182 186 183 182 182 186 192 191 192 198 198 201 203 209 218 221 221 225 237 238 231
336 304 238 235 213 193 197 249 243 230 234 211 186 167 157 179 178 174 168 180 176 175 179 178 180 176 155 167 165 134 135 147 150 146 153 162 167 169 174 171 161 168 174 176 174 169 185 192 193 191 188 189 193 200 202 202 191 182 162 192 204 209 198 174 163 164 155 148 154 154 164 178 182 186 197 203 211 223 224 220 222 224 232 236 236 233 230
323 315 352 11 335 232 281 282 260 174 222 284 209 170 165 79 37 139 154 167 195 224 169 170 168 147 143 143 163 167 158 154 154 155 162 165 168 174 174 167 164 162 174 180 178 175 185 194 196 195 197 196 198 202 203 194 181 179 172 191 194 186 184 166 150 144 133 144 154 167 171 159 163 184 205 205 208 215 230 239 243 247 245 243 241 239 236
322 315 350 320 10 17 336 285 306 322 8 305 271 154 195 155 156 153 148 156 204 202 152 156 154 158 159 165 170 160 170 168 158 162 169 167 171 171 168 169 164 164 165 172 180 186 190 193 192 193 193 196 189 196 187 186 178 162 168 174 177 183 163 142 153 155 146 152 168 199 196 175 185 202 197 202 208 212 232 245 249 247 250 246 243 243 244
273 270 8 1 24 36 9 330 314 284 266 234 223 233 164 180 152 144 170 197 193 158 157 155 174 169 169 160 166 163 171 174 168 171 174 175 177 172 167 168 174 173 172 175 177 182 188 187 183 183 176 172 183 182 180 187 147 162 174 171 166 174 176 176 174 169 165 164 175 187 210 230 203 179 206 222 212 198 219 231 234 231 233 240 245 244 243
265 300 348 35 48 39 247 216 302 359 354 317 306 271 187 176 161 189 174 182 146 146 161 163 172 167 178 176 185 172 168 171 181 184 178 174 173 175 170 173 177 180 177 174 176 175 172 170 159 154 167 167 168 143 135 187 206 187 174 162 164 175 168 171 168 175 184 183 175 177 186 234 272 272 220 226 230 214 201 208 230 259 258 236 238 239 236
311 347 19 42 19 236 241 323 307 4 337 5 338 302 199 187 202 155 168 129 149 163 172 170 171 179 186 170 158 172 175 168 175 180 177 162 172 176 173 174 176 180 178 170 157 146 145 144 142 138 149 155 145 148 163 180 202 189 174 157 166 166 168 148 135 143 159 179 134 91 72 320 305 280 288 295 291 291 295 290 291 280 284 296 279 259 261
344 29 39 100 238 238 281 313 22 359 2 348 2 14 350 189 186 174 171 168 162 164 166 170 170 165 161 160 168 163 177 181 169 166 172 179 175 177 184 174 177 174 174 170 167 161 148 137 148 154 160 163 156 174 178 180 182 178 172 170 183 181 174 168 170 180 189 198 155 138 158 168 189 215 235 258 277 293 305 309 313 314 302 277 267 265 267
129 183 129 231 282 344 353 16 10 356 324 315 333 256 330 354 310 206 121 119 151 151 163 145 127 128 119 133 200 203 179 184 180 170 176 180 182 183 177 171 176 178 172 164 154 145 149 155 155 165 165 160 159 164 178 189 177 177 171 175 184 193 195 185 189 192 196 206 207 170 165 174 185 179 163 178 192 204 210 227 231 223 228 231 236 248 276
115 93 3 356 21 359 292 325 316 311 292 273 272 118 342 353 2 151 139 147 144 144 146 139 135 123 108 144 220 203 188 184 172 187 173 162 162 156 145 145 154 161 159 130 146 152 157 169 175 169 169 164 161 168 181 181 175 179 181 196 192 191 198 193 192 192 195 192 190 183 174 181 178 173 162 172 176 184 188 197 201 202 208 220 230 224 230
348 56 120 215 173 234 303 325 320 313 318 311 26 79 357 314 8 341 165 150 155 152 143 138 129 128 152 197 212 210 173 180 170 162 156 157 159 155 156 159 162 166 162 153 150 153 159 169 184 174 168 161 157 169 177 180 175 178 192 198 192 191 195 188 182 182 179 174 173 167 171 175 163 172 192 204 208 195 211 202 222 222 214 238 263 264 252
205 132 118 233 234 38 332 314 314 313 313 336 74 48 293 313 336 342 197 136 140 135 140 144 143 149 176 196 228 193 175 173 161 152 151 151 153 158 158 159 163 160 141 126 133 155 174 184 173 172 164 158 163 160 181 169 172 188 195 196 195 185 165 160 160 160 155 155 150 153 162 159 164 194 199 203 223 207 215 199 225 249 259 238 239 257 259
217 151 224 308 336 354 336 319 310 315 322 62 62 278 269 309 317 307 237 157 146 144 149 154 160 200 179 198 187 141 157 133 134 152 153 160 162 161 158 157 147 143 150 150 157 169 185 171 164 167 159 146 163 166 162 159 184 189 175 146 134 126 115 110 107 109 112 125 130 141 151 162 176 176 179 192 184 174 186 192 196 211 219 225 230 246 251
187 202 137 213 135 164 331 316 326 353 54 28 304 298 308 299 294 40 90 160 155 154 161 168 177 196 241 45 105 138 147 152 152 154 155 155 158 146 146 145 148 149 149 141 139 150 172 156 158 160 151 151 160 158 144 155 175 151 136 128 121 120 120 122 123 120 116 101 117 144 150 138 150 159 167 148 133 132 118 120 144 206 231 233 225 247 255
26 27 85 112 232 309 349 318 351 14 77 223 272 306 300 287 296 101 169 162 189 163 166 184 178 143 145 141 131 136 152 149 159 161 161 160 157 153 145 151 160 149 148 148 151 155 157 157 151 154 150 155 163 158 142 167 153 144 135 132 129 129 131 131 137 145 158 163 150 134 150 154 133 157 284 116 106 103 102 85 54 356 329 318 299 279 268
322 160 146 184 208 256 329 360 91 262 175 237 278 341 329 326 342 57 157 228 173 187 170 173 195 165 131 122 130 144 159 164 163 165 162 153 152 153 159 160 161 150 141 138 140 148 147 141 139 144 143 154 162 144 161 166 140 132 128 130 132 133 137 144 144 161 181 187 166 179 168 167 161 175 161 92 92 126 113 104 89 24 330 308 300 297 297
57 268 198 239 220 250 303 359 224 215 233 283 8 18 357 337 326 315 180 228 225 202 181 159 157 154 170 155 157 158 168 167 165 167 169 163 163 162 161 164 155 144 141 142 139 142 145 142 131 136 142 149 147 145 174 143 134 129 126 120 119 123 136 154 144 200 234 219 194 194 220 194 215 206 130 71 250 11 87 75 79 75 36 31 25 335 338
345 357 16 305 293 306 329 262 222 263 21 30 25 22 3 339 324 298 224 238 331 14 282 148 177 166 157 139 145 148 160 163 167 159 153 156 156 154 146 137 140 132 129 135 139 143 157 167 146 132 143 132 128 152 131 111 112 117 112 111 112 127 113 147 187 227 264 310 338 275 255 247 77 90 187 187 143 78 77 85 79 79 38 69 63 54 37
35 326 327 337 319 333 344 305 250 51 45 46 29 19 3 346 334 319 303 132 118 114 14 188 156 167 140 129 143 149 159 160 161 160 157 160 161 160 154 147 135 133 137 137 139 135 143 247 100 89 81 74 110 121 120 113 103 102 103 107 94 62 63 44 41 142 198 260 301 25 29 66 64 49 46 80 87 73 72 72 58 47 35 78 78 50 29
127 210 293 295 290 288 305 332 356 18 33 38 32 24 17 359 333 306 284 170 107 115 108 140 123 126 141 134 149 157 163 160 155 154 152 154 155 147 135 127 126 119 104 89 75 76 70 31 39 54 55 72 104 110 109 109 100 89 88 75 78 18 350 345 344 337 350 285 49 81 48 34 45 44 46 73 85 77 76 86 97 121 203 140 116 123 8
275 298 300 304 319 323 341 341 342 300 27 65 31 29 34 9 323 304 307 298 160 131 138 132 127 125 175 161 159 152 137 134 143 144 134 107 85 69 60 48 49 49 50 50 46 44 28 12 36 34 52 80 106 126 113 115 113 100 86 55 38 3 344 347 319 348 26 23 59 96 93 65 53 36 3 16 103 109 67 249 224 200 186 170 146 168 188
8 163 316 341 55 1 316 339 322 315 330 68 67 64 75 20 310 306 308 325 7 94 122 137 137 145 161 172 132 124 111 97 77 69 68 67 72 76 79 81 81 76 71 68 50 24 350 350 19 29 42 48 122 84 101 112 107 99 71 34 23 8 5 352 354 29 33 56 75 105 119 128 116 72 46 31 357 156 160 166 360 329 266 192 172 166 181
257 275 294 4 289 241 251 267 307 338 321 347 76 43 39 50 290 315 337 346 351 41 63 97 134 142 149 127 90 71 57 55 63 73 82 87 89 86 87 86 86 97 113 125 131 143 195 278 59 59 52 41 44 40 45 47 54 52 49 33 15 3 10 342 329 343 83 98 113 136 145 148 151 142 142 48 19 34 124 166 182 206 218 164 175 189 194
271 282 323 335 322 280 291 304 299 302 303 290 76 79 53 8 356 344 350 357 341 341 37 44 77 127 98 75 81 78 73 75 80 83 87 90 94 99 100 112 123 134 151 167 150 135 122 86 85 85 75 69 79 89 102 120 128 132 137 147 163 176 167 186 206 270 266 184 172 165 174 173 168 171 167 149 107 351 165 152 178 223 220 203 196 230 248
231 292 309 299 276 275 264 264 262 288 315 335 40 79 66 32 10 4 11 8 16 28 37 42 40 43 73 74 81 88 91 83 80 85 89 96 107 115 129 133 143 155 181 164 99 86 72 72 77 84 109 130 134 140 132 133 136 149 160 164 165 172 183 198 195 188 198 222 206 189 180 183 189 186 178 172 178 169 262 199 168 177 197 185 183 204 223
229 286 296 292 265 262 294 308 17 3 353 23 50 56 72 65 44 31 28 26 30 40 53 55 64 65 86 92 89 88 81 82 90 94 93 98 106 111 122 139 160 177 108 62 76 81 101 97 96 88 94 142 145 139 136 156 165 162 174 177 158 148 166 163 186 256 285 275 235 229 218 212 209 205 211 204 216 182 157 168 229 283 335 226 200 180 183
199 279 348 332 320 342 360 57 329 314 353 50 69 71 76 81 71 65 48 45 45 48 58 69 80 80 72 76 83 83 94 92 79 78 86 77 63 51 37 12 10 57 87 89 87 102 106 108 110 124 151 181 151 149 155 164 167 172 171 161 161 176 173 170 178 189 204 224 255 262 236 218 216 213 219 215 201 195 191 187 191 189 176 192 196 216 202
188 158 163 162 254 259 319 334 333 303 348 38 47 65 70 71 69 62 54 48 47 51 55 57 69 76 79 74 91 91 84 86 94 99 93 101 118 124 118 112 299 329 48 61 73 68 69 80 71 34 348 344 17 292 192 167 174 177 170 170 164 180 196 189 190 192 197 196 211 230 226 216 202 195 200 187 184 205 190 181 186 175 166 224 219 195 180
296 269 204 222 244 275 310 348 334 331 45 36 50 59 63 71 66 66 62 58 58 57 57 57 67 77 90 96 98 101 105 108 108 111 125 125 115 297 4 112 134 103 72 64 79 105 106 91 88 85 319 317 328 334 330 237 192 171 168 173 176 180 201 218 220 216 198 182 210 238 240 225 205 196 195 200 194 194 166 178 193 187 168 169 172 201 204
248 267 268 256 284 305 347 40 297 331 43 34 53 52 53 76 74 64 66 61 65 66 62 62 55 47 45 75 82 102 116 126 129 123 102 106 124 100 78 77 74 67 76 75 93 106 82 72 73 127 227 359 0 333 310 294 249 201 181 181 187 195 199 220 229 233 201 194 231 248 248 236 231 227 232 232 226 172 162 179 187 174 171 198 213 199 191
283 267 298 349 345 346 132 213 222 57 49 43 52 60 52 62 76 78 74 74 77 83 82 90 91 75 36 352 346 112 92 82 80 90 91 80 64 49 47 57 86 91 94 96 73 61 66 59 36 4 329 346 341 351 330 314 279 270 146 219 220 226 222 209 207 200 198 217 236 249 265 258 245 236 246 240 202 144 170 183 185 183 187 195 212 213 191
318 348 54 342 279 251 229 92 65 57 53 52 58 57 54 65 74 86 93 85 92 104 109 108 113 124 144 170 249 32 82 103 97 86 73 53 46 39 45 59 74 83 79 59 38 30 32 43 40 1 329 330 337 333 310 329 349 192 217 216 215 222 212 199 189 193 194 216 249 300 287 269 259 252 244 243 224 207 190 181 194 195 190 204 220 203 161
314 316 128 219 266 348 52 43 76 61 61 66 69 75 62 61 67 82 98 107 94 81 97 110 118 129 150 158 119 69 64 70 67 61 58 51 49 52 62 72 72 70 58 46 37 29 22 16 347 324 328 344 355 343 354 34 345 261 241 222 219 217 211 185 124 134 229 242 264 256 263 264 263 253 240 235 229 218 208 202 196 200 208 219 226 196 172
243 259 223 78 22 315 348 68 85 90 77 74 67 61 59 54 61 70 81 99 114 119 123 125 138 136 69 63 57 47 60 69 58 50 49 53 56 62 67 72 66 63 60 48 38 27 14 360 351 354 348 353 347 337 320 335 181 256 239 231 219 213 158 97 96 111 155 281 244 252 244 242 247 244 244 242 235 218 213 214 213 209 219 230 234 208 188
172 77 103 115 209 259 265 160 112 110 100 87 74 68 63 64 67 88 108 106 97 136 134 120 115 93 81 87 78 67 65 69 70 67 60 56 58 61 69 69 66 61 55 42 30 20 9 3 28 30 17 8 358 329 298 289 173 200 287 271 266 242 173 157 152 180 198 232 251 265 267 256 250 250 241 239 245 237 235 232 225 216 217 226 233 201 199
69 63 106 166 209 247 228 150 116 114 104 93 88 82 76 74 80 86 104 113 127 71 27 36 44 49 50 53 64 72 80 82 82 78 73 69 67 72 74 74 69 66 60 51 32 18 17 19 46 47 34 12 7 353 337 159 26 30 345 39 323 264 242 199 182 178 222 252 273 281 281 279 282 276 270 270 268 258 247 249 243 233 226 223 207 202 206
35 31 360 15 21 34 28 13 19 13 11 49 66 71 72 72 82 91 87 91 91 91 86 83 69 61 59 61 73 78 81 84 85 84 82 80 83 79 76 71 61 57 52 52 25 7 14 15 27 26 15 356 357 349 344 64 55 22 13 30 26 44 43 45 76 130 165 297 307 307 300 306 310 303 283 267 264 271 271 260 259 259 256 228 205 197 193
42 41 55 82 83 86 84 320 298 102 98 78 62 57 64 71 72 77 80 86 91 96 92 83 82 81 78 74 72 72 75 79 82 83 83 82 82 80 67 62 54 48 46 38 3 5 8 9 12 3 349 350 346 343 5 46 46 45 21 21 15 24 21 16 2 357 358 348 338 323 321 325 326 328 338 350 342 329 297 276 261 252 247 232 213 203 199
75 61 27 343 72 113 121 154 28 54 61 74 67 58 59 71 72 75 76 77 78 87 87 85 85 82 81 81 81 82 83 82 80 75 71 65 62 65 62 56 57 52 53 26 15 9 1 11 359 358 354 352 346 343 18 46 42 37 29 29 30 28 26 21 17 356 359 340 336 339 352 347 351 349 345 348 355 353 352 353 349 317 269 230 214 216 209
108 124 141 191 38 57 69 66 54 61 60 66 76 72 67 77 78 83 83 80 71 82 89 88 83 83 82 81 77 72 69 71 75 81 81 77 73 72 67 52 38 33 36 32 23 9 12 12 8 1 354 347 347 0 26 54 47 34 30 30 29 32 27 22 24 29 8 359 353 354 356 354 347 346 349 350 351 352 349 349 1 5 4 354 300 265 227
101 123 130 106 71 70 80 73 67 60 61 61 58 52 52 76 84 81 78 81 78 76 78 86 90 87 84 84 83 78 73 66 61 55 61 78 77 71 68 61 28 35 34 34 24 18 14 10 357 357 343 355 340 29 30 39 37 33 42 45 47 46 42 37 34 28 20 14 8 6 353 349 352 357 357 353 348 346 343 343 346 355 9 13 6 6 181
85 81 77 72 71 70 77 81 83 76 66 62 66 62 67 74 82 85 84 81 80 81 86 86 92 93 90 87 87 83 78 75 73 66 58 58 58 72 72 60 30 42 47 39 24 21 11 7 359 0 8 20 21 47 46 33 29 32 32 35 37 37 38 36 32 23 17 23 30 22 21 16 20 17 10 6 4 360 359 358 4 6 0 11 20 25 31
85 85 86 88 84 68 59 44 52 81 81 64 62 69 73 73 76 77 76 76 79 80 79 76 79 81 82 84 84 79 74 69 72 74 70 59 56 53 72 81 51 54 54 42 34 21 19 3 16 24 44 47 46 44 43 34 33 38 36 37 37 39 37 35 31 26 26 26 24 26 25 23 25 22 20 15 10 9 11 14 11 10 13 14 10 17 25
85 89 88 89 88 85 81 80 48 61 76 56 45 72 75 72 70 76 76 77 73 72 75 73 70 67 65 67 72 71 68 66 65 64 73 62 52 42 39 52 45 52 52 45 35 30 25 25 34 46 45 43 47 49 44 34 39 40 39 37 35 37 37 35 28 29 30 35 42 40 36 35 35 33 34 31 28 27 27 26 24 25 27 19 25 25 25
69 74 77 75 61 67 89 94 102 104 106 100 85 83 81 80 75 75 79 78 76 73 72 76 77 77 76 75 77 78 77 69 65 66 73 67 65 52 34 61 60 61 55 51 36 30 28 37 45 50 50 48 49 50 46 39 41 40 41 41 40 39 39 37 31 32 32 35 38 42 43 41 37 37 39 37 34 33 30 30 34 33 36 31 34 37 36
73 72 83 93 84 75 88 99 98 102 100 94 89 83 83 86 87 82 79 81 78 72 72 71 75 75 83 85 83 80 78 75 69 66 71 76 77 63 69 79 67 70 64 59 41 38 39 50 51 52 55 56 54 50 45 41 38 38 40 44 44 41 39 36 35 35 35 35 33 36 39 37 38 38 38 39 34 36 33 31 36 36 36 37 36 35 33
91 85 75 69 58 71 85 84 101 102 97 96 95 95 90 90 89 88 84 82 80 77 71 70 70 70 69 78 88 91 88 80 63 45 51 52 50 57 73 81 77 78 77 73 66 57 52 53 53 56 58 60 59 51 47 42 41 38 40 35 32 28 29 29 35 38 37 35 33 37 39 37 35 35 38 42 40 37 34 32 35 31 32 39 43 38 35
100 94 85 97 128 137 91 63 59 93 104 111 112 106 103 99 94 88 86 84 81 77 74 71 71 67 68 73 76 86 103 108 95 46 16 60 54 62 72 76 77 76 72 60 55 42 44 49 53 52 51 48 42 39 40 38 38 35 33 32 30 26 22 22 27 33 37 38 38 42 41 41 39 38 37 37 38 38 37 37 34 33 38 45 48 42 36
99 108 115 110 98 89 97 120 115 95 104 110 106 108 112 108 103 98 95 93 92 87 84 78 69 64 68 78 83 77 78 87 106 120 106 86 82 79 81 79 78 71 63 62 46 32 41 44 52 56 55 54 50 44 41 43 45 45 44 44 43 43 41 43 40 41 44 43 40 39 35 33 29 29 32 35 36 35 37 40 40 39 39 44 48 44 41
77 77 77 79 83 84 91 89 86 94 98 96 105 113 114 107 98 93 101 105 109 107 96 87 82 80 78 78 75 82 78 78 77 90 103 97 87 79 79 82 78 73 65 55 54 42 36 39 39 47 48 44 45 51 51 50 50 54 54 50 50 52 49 48 45 42 42 43 40 37 36 34 29 26 26 24 27 35 37 37 41 41 43 45 44 39 35
77 83 85 86 83 82 75 80 92 94 91 96 102 107 106 102 106 110 108 109 105 104 102 96 89 89 83 77 87 90 84 82 92 96 76 70 84 96 88 67 65 66 51 44 38 38 37 44 50 48 46 44 39 38 41 43 46 43 42 43 42 44 47 48 50 48 45 42 41 36 33 30 27 25 23 18 16 20 33 36 36 39 44 46 45 43 39
87 92 88 84 83 78 76 76 77 81 86 89 96 103 107 111 110 103 93 97 104 112 117 112 100 90 97 107 100 95 103 95 62 38 46 56 65 59 60 63 39 35 27 26 24 26 31 35 38 49 55 47 52 54 51 53 56 57 58 57 56 53 51 51 51 52 47 43 43 40 35 30 26 25 21 17 13 10 11 27 38 35 32 35 39 41 41